SM6KNE Weather Reports


time (UTC)temp
C
wind
direction
speed
KPH
gust
KPH
rain 1hr
cm
rain 24hr
cm
rain mn
cm
humidity
%
barometer
mb
20260506110524 21 275 3.2 9.7 0.00 0.00 0.00 25 1012.1
20260506105523 20 284 8.0 9.7 0.00 0.00 0.00 25 1012.1
20260506104524 21 293 4.8 9.7 0.00 0.00 0.00 28 1012.1
20260506103523 20 338 0.0 4.8 0.00 0.00 0.00 27 1012.1
20260506102524 20 268 3.2 11.3 0.00 0.00 0.00 29 1012.1
20260506101523 18 0.0 0.0 0.00 0.00 0.00 30 1012.1
20260506100524 17 284 1.6 4.8 0.00 0.00 0.00 31 1013.1
20260506095523 16 263 8.0 12.9 0.00 0.00 0.00 32 1013.1
20260506094527 16 293 3.2 9.7 0.00 0.00 0.00 32 1013.1
20260506093522 16 258 1.6 4.8 0.00 0.00 0.00 33 1013.1
20260506092543 15 283 4.8 12.9 0.00 0.00 0.00 34 1013.1
20260506091524 15 0.0 0.0 0.00 0.00 0.00 35 1013.1
20260506090522 14 23 0.0 1.6 0.00 0.00 0.00 36 1013.1
20260506085520 13 266 6.4 9.7 0.00 0.00 0.00 39 1013.1
20260506084523 12 248 1.6 6.4 0.00 0.00 0.00 40 1013.1
20260506083516 12 23 0.0 1.6 0.00 0.00 0.00 42 1013.1
20260506082524 11 0.0 0.0 0.00 0.00 0.00 44 1013.1
20260506081524 11 0.0 0.0 0.00 0.00 0.00 45 1013.1
20260506080517 10 229 1.6 6.4 0.00 0.00 0.00 48 1013.1
20260506073515 8 0.0 0.0 0.00 0.00 0.00 60 1013.1
20260506072528 8 0.0 0.0 0.00 0.00 0.00 63 1013.1
20260506071523 7 293 0.0 4.8 0.00 0.00 0.00 65 1013.1
20260506070524 6 0.0 0.0 0.00 0.00 0.00 68 1013.1
20260506061516 2 0.0 0.0 0.00 0.00 0.00 72 1013.1
20260506060523 1 0.0 0.0 0.00 0.00 0.00 72 1013.1
20260506050524 0 0.0 0.0 0.00 0.00 0.00 69 1014.1
20260506044523 -1 0.0 0.0 0.00 0.00 0.00 68 1013.1
20260506043523 -1 0.0 0.0 0.00 0.00 0.00 68 1014.1
20260506042521 -2 0.0 0.0 0.00 0.00 0.00 67 1013.9
20260506041524 -2 0.0 0.0 0.00 0.00 0.00 67 1013.1
20260506040523 -2 0.0 0.0 0.00 0.00 0.00 66 1013.1
20260506035524 -2 0.0 0.0 0.00 0.00 0.00 65 1013.1
20260506034524 -2 0.0 0.0 0.00 0.00 0.00 65 1013.1
20260506033523 -2 0.0 0.0 0.00 0.00 0.00 66 1013.1
20260506032523 -2 0.0 0.0 0.00 0.00 0.00 65 1013.1
20260506031523 -2 0.0 0.0 0.00 0.00 0.00 65 1013.1
20260506030521 -2 0.0 0.0 0.00 0.00 0.00 65 1013.1
20260506025517 -2 0.0 0.0 0.00 0.00 0.00 65 1013.1
20260506024604 -2 0.0 0.0 0.00 0.00 0.00 65 1013.1
20260506023523 -2 0.0 0.0 0.00 0.00 0.00 64 1013.1
20260506022523 -2 0.0 0.0 0.00 0.00 0.00 64 1013.1
20260506021524 -2 0.0 0.0 0.00 0.00 0.00 63 1013.1
20260506020543 -1 0.0 0.0 0.00 0.00 0.00 62 1013.1
20260506015520 -1 0.0 0.0 0.00 0.00 0.00 63 1013.1
20260506014544 -1 0.0 0.0 0.00 0.00 0.00 63 1013.1
20260506013544 -1 0.0 0.0 0.00 0.00 0.00 63 1013.1
20260506012548 -1 0.0 0.0 0.00 0.00 0.00 62 1013.1
20260506011523 -1 0.0 0.0 0.00 0.00 0.00 62 1013.1
20260506010524 -1 0.0 0.0 0.00 0.00 0.00 61 1013.1
20260506005523 -1 0.0 0.0 0.00 0.00 0.00 61 1013.1
20260506004520 -1 0.0 0.0 0.00 0.00 0.00 61 1013.1
20260506003527 0 0.0 0.0 0.00 0.00 0.00 61 1013.1
20260506002523 0 0.0 0.0 0.00 0.00 0.00 60 1013.1
20260506001524 0 0.0 0.0 0.00 0.00 0.00 60 1013.1
20260506000523 0 0.0 0.0 0.00 0.00 0.00 60 1013.1
20260505235523 0 0.0 0.0 0.00 0.00 0.00 59 1013.1
20260505234517 0 0.0 0.0 0.00 0.00 0.00 59 1013.1
20260505233520 0 0.0 0.0 0.00 0.00 0.00 58 1013.1
20260505232525 0 0.0 0.0 0.00 0.00 0.00 58 1013.1
20260505231515 0 0.0 0.0 0.00 0.00 0.00 56 1013.1
20260505230523 0 0.0 0.0 0.00 0.00 0.00 56 1013.1
20260505225524 0 0.0 0.0 0.00 0.00 0.00 57 1013.1
20260505224523 0 0.0 0.0 0.00 0.00 0.00 56 1013.1
20260505223524 0 0.0 0.0 0.00 0.00 0.00 55 1013.1
20260505222520 1 0.0 0.0 0.00 0.00 0.00 54 1013.1
20260505221523 1 0.0 0.0 0.00 0.00 0.00 54 1013.1
20260505220523 1 0.0 0.0 0.00 0.00 0.00 53 1013.1
20260505215523 1 0.0 0.0 0.00 0.00 0.00 52 1013.1
20260505214544 2 90 0.0 1.6 0.00 0.00 0.00 52 1013.1
20260505213524 2 0.0 0.0 0.00 0.00 0.00 52 1013.1
20260505212524 2 0.0 0.0 0.00 0.00 0.00 51 1013.1
20260505211520 2 0.0 0.0 0.00 0.00 0.00 51 1013.1
20260505210525 2 0.0 0.0 0.00 0.00 0.00 49 1013.1
20260505205524 3 0.0 0.0 0.00 0.00 0.00 48 1013.1
20260505204527 3 0.0 0.0 0.00 0.00 0.00 47 1013.1
20260505203523 3 0.0 0.0 0.00 0.00 0.00 48 1013.1
20260505202524 4 0.0 0.0 0.00 0.00 0.00 47 1013.1
20260505201523 4 0.0 0.0 0.00 0.00 0.00 46 1013.1
20260505200520 4 0.0 0.0 0.00 0.00 0.00 44 1013.1
20260505195525 5 0.0 0.0 0.00 0.00 0.00 43 1013.1
20260505194523 5 0.0 0.0 0.00 0.00 0.00 41 1013.1
20260505193523 6 0.0 0.0 0.00 0.00 0.00 40 1012.1
20260505192524 6 0.0 0.0 0.00 0.00 0.00 37 1012.1
20260505191523 6 0.0 0.0 0.00 0.00 0.00 36 1012.1
20260505190523 7 0.0 0.0 0.00 0.00 0.00 35 1012.1
20260505185520 8 0.0 0.0 0.00 0.00 0.00 33 1012.1
20260505184524 8 248 1.6 4.8 0.00 0.00 0.00 32 1012.1
20260505183515 8 264 6.4 9.7 0.00 0.00 0.00 32 1012.1
20260505182523 9 256 8.0 9.7 0.00 0.00 0.00 32 1012.1
20260505181517 10 253 8.0 9.7 0.00 0.00 0.00 31 1012.1
20260505180543 10 265 9.7 12.9 0.00 0.00 0.00 30 1012.1
20260505175544 11 271 12.9 14.5 0.00 0.00 0.00 29 1012.1
20260505174520 11 256 12.9 14.5 0.00 0.00 0.00 27 1012.1
20260505173525 11 272 11.3 12.9 0.00 0.00 0.00 25 1012.1
20260505172524 12 259 11.3 12.9 0.00 0.00 0.00 23 1012.1
20260505171523 13 269 11.3 16.1 0.00 0.00 0.00 22 1012.1
20260505170523 14 271 11.3 14.5 0.00 0.00 0.00 22 1011.1
20260505165544 15 266 11.3 14.5 0.00 0.00 0.00 22 1011.2
20260505164523 16 260 8.0 12.9 0.00 0.00 0.00 21 1012.1
20260505163541 17 289 6.4 12.9 0.00 0.00 0.00 21 1012.1
20260505162524 17 290 6.4 9.7 0.00 0.00 0.00 20 1012.1
20260505161532 17 262 9.7 12.9 0.00 0.00 0.00 21 1012.1
20260505160526 18 289 11.3 17.7 0.00 0.00 0.00 23 1012.1
20260505152521 18 280 12.9 16.1 0.00 0.00 0.00 23 1012.1
20260505151524 18 267 9.7 12.9 0.00 0.00 0.00 23 1012.1
20260505150524 18 270 12.9 17.7 0.00 0.00 0.00 23 1012.1
20260505140525 19 282 16.1 19.3 0.00 0.00 0.00 21 1011.1
20260505124544 17 275 20.9 24.1 0.00 0.00 0.00 27 1011.1
20260505123624 18 267 19.3 24.1 0.00 0.00 0.00 27 1011.1
20260505122523 18 254 17.7 22.5 0.00 0.00 0.00 28 1011.1
20260505121544 18 277 16.1 22.5 0.00 0.00 0.00 28 1011.1
20260505120523 18 265 22.5 29.0 0.00 0.00 0.00 27 1011.1
20260505115526 18 256 12.9 16.1 0.00 0.00 0.00 28 1011.1
20260505114523 18 262 16.1 20.9 0.00 0.00 0.00 29 1011.1
20260505113523 17 263 16.1 24.1 0.00 0.00 0.00 31 1011.1
20260505112526 17 267 17.7 24.1 0.00 0.00 0.00 31 1011.1
20260505111524 16 270 17.7 20.9 0.00 0.00 0.00 30 1011.1